EW2522 Weather Reports


time (UTC)temp
C
wind
direction
speed
KPH
gust
KPH
rain 1hr
cm
rain 24hr
cm
rain mn
cm
humidity
%
barometer
mb
20260906074341 10 307 1.6 17.7 0.00 0.46 0.00 74 1003.6
20260906073442 10 318 1.6 14.5 0.00 0.46 0.00 74 1003.6
20260906072541 10 292 1.6 16.1 0.00 0.46 0.00 75 1003.4
20260906071642 10 315 3.2 19.3 0.00 0.46 0.00 76 1003.2
20260906070741 9 324 3.2 16.1 0.00 0.46 0.00 75 1003.3
20260906065841 9 335 3.2 19.3 0.00 0.46 0.00 77 1003.1
20260906064941 9 327 1.6 11.3 0.00 0.46 0.00 76 1002.9
20260906064041 9 320 1.6 14.5 0.00 0.46 0.00 78 1002.8
20260906063142 8 317 3.2 17.7 0.00 0.46 0.00 78 1002.7
20260906062455 8 325 1.6 16.1 0.00 0.46 0.00 79 1002.6
20260906061552 8 313 1.6 20.9 0.00 0.46 0.00 79 1002.7
20260906060441 8 314 1.6 14.5 0.00 0.46 0.00 80 1002.6
20260906055542 8 334 1.6 16.1 0.00 0.46 0.00 79 1002.5
20260906054854 8 313 1.6 12.9 0.00 0.46 0.00 80 1002.3
20260906053741 8 337 1.6 12.9 0.00 0.46 0.00 80 1002.3
20260906052841 8 0 0.0 9.7 0.00 0.46 0.00 80 1002.2
20260906052151 8 337 1.6 17.7 0.00 0.46 0.00 80 1002.1
20260906051042 8 344 1.6 12.9 0.00 0.46 0.00 80 1002.0
20260906050142 8 335 1.6 14.5 0.00 0.46 0.00 81 1002.0
20260906045242 8 338 1.6 16.1 0.00 0.46 0.00 81 1001.9
20260906044341 8 331 1.6 16.1 0.00 0.46 0.00 82 1001.8
20260906043442 8 336 1.6 14.5 0.00 0.46 0.00 83 1001.7
20260906042541 8 337 1.6 12.9 0.00 0.46 0.00 83 1001.7
20260906041641 8 338 1.6 12.9 0.00 0.46 0.00 83 1001.7
20260906040955 8 329 1.6 17.7 0.00 0.46 0.00 83 1001.6
20260906035841 8 0 0.0 6.4 0.00 0.46 0.00 85 1001.6
20260906034942 8 0 0.0 14.5 0.00 0.46 0.00 86 1001.4
20260906034042 8 0 0.0 3.2 0.00 0.46 0.00 88 1001.4
20260906033141 8 0 0.0 9.7 0.00 0.46 0.00 88 1001.3
20260906032241 8 0 0.0 9.7 0.00 0.46 0.00 89 1001.2
20260906031554 8 0 0.0 4.8 0.00 0.46 0.00 89 1001.2
20260906030442 8 0 0.0 8.0 0.00 0.46 0.00 89 1001.2
20260906025754 8 0 0.0 6.4 0.00 0.46 0.00 89 1001.2
20260906024856 8 0 0.0 0.0 0.00 0.46 0.00 89 1001.2
20260906023742 8 0 0.0 11.3 0.00 0.46 0.00 89 1001.1
20260906022842 8 0 0.0 4.8 0.00 0.46 0.00 89 1001.1
20260906021941 8 0 0.0 4.8 0.00 0.46 0.00 89 1001.0
20260906021041 8 0 0.0 0.0 0.00 0.46 0.00 88 1001.0
20260906020353 8 0 0.0 0.0 0.00 0.46 0.00 88 1001.0
20260906015241 8 0 0.0 6.4 0.00 0.46 0.00 88 1001.0
20260906014341 8 329 1.6 11.3 0.00 0.46 0.00 87 1001.0
20260906013441 8 0 0.0 8.0 0.00 0.46 0.00 87 1000.9
20260906012542 8 317 3.2 12.9 0.00 0.46 0.00 87 1000.9
20260906011641 8 338 1.6 16.1 0.00 0.46 0.00 87 1000.8
20260906010741 8 323 3.2 17.7 0.00 0.46 0.00 87 1000.8
20260906005842 8 318 1.6 14.5 0.00 0.46 0.00 87 1000.7
20260906004942 8 313 1.6 17.7 0.00 0.46 0.00 88 1000.7
20260906004042 8 333 1.6 16.1 0.00 0.46 0.00 88 1000.6
20260906003351 8 328 1.6 16.1 0.00 0.46 0.00 88 1000.5
20260906002454 8 324 1.6 14.5 0.00 0.46 0.00 88 1000.5
20260906001342 8 324 1.6 17.7 0.00 0.46 0.00 88 1000.4
20260906000442 8 327 1.6 14.5 0.00 0.46 0.00 87 1000.3
20260905235542 8 325 1.6 14.5 0.00 0.46 0.00 87 1000.1
20260905234641 8 334 1.6 14.5 0.00 0.46 0.00 87 1000.1
20260905233742 8 336 1.6 14.5 0.00 0.46 0.00 87 1000.0
20260905232842 8 329 1.6 19.3 0.00 0.46 0.00 86 999.9
20260905231942 8 325 3.2 19.3 0.00 0.46 0.00 87 999.9
20260905231252 8 321 1.6 19.3 0.00 0.46 0.00 87 999.9
20260905225241 9 332 1.6 16.1 0.00 0.46 0.00 88 999.8
20260905224340 9 341 1.6 14.5 0.00 0.46 0.00 89 999.8
20260905223442 9 0 0.0 8.0 0.00 0.46 0.00 89 999.7
20260905222541 9 0 0.0 8.0 0.00 0.46 0.00 90 999.5
20260905221641 9 0 0.0 4.8 0.00 0.46 0.00 90 999.5
20260905220954 9 0 0.0 8.0 0.00 0.46 0.00 90 999.5
20260905215841 9 0 0.0 8.0 0.00 0.46 0.00 90 999.4
20260905215153 9 0 0.0 4.8 0.00 0.46 0.00 91 999.3
20260905214041 9 0 0.0 1.6 0.00 0.46 0.00 90 999.2
20260905213141 9 0 0.0 6.4 0.00 0.46 0.00 90 999.1
20260905212241 10 340 1.6 8.0 0.00 0.46 0.00 90 999.0
20260905211341 10 334 1.6 17.7 0.00 0.46 0.00 90 998.9
20260905210441 10 0 0.0 17.7 0.00 0.46 0.00 90 998.9
20260905205540 10 340 1.6 9.7 0.00 0.46 0.46 90 998.9
20260905204641 10 0 0.0 8.0 0.00 0.46 0.46 90 998.9
20260905203741 10 328 1.6 14.5 0.00 0.46 0.46 91 998.8
20260905203055 10 0 0.0 12.9 0.00 0.46 0.46 91 998.7
20260905201941 10 0 0.0 14.5 0.00 0.46 0.46 91 998.6
20260905201043 10 0 0.0 11.3 0.00 0.46 0.46 90 998.6
20260905200352 10 0 0.0 14.5 0.00 0.46 0.46 90 998.5
20260905195241 10 327 1.6 11.3 0.00 0.46 0.46 89 998.4
20260905194341 10 331 1.6 9.7 0.00 0.46 0.46 90 998.4
20260905193441 10 327 1.6 20.9 0.00 0.46 0.46 90 998.2
20260905192541 10 0 0.0 4.8 0.00 0.46 0.46 90 998.3
20260905191641 10 0 0.0 8.0 0.00 0.46 0.46 90 998.2
20260905190741 10 0 0.0 4.8 0.00 0.46 0.46 90 998.1
20260905185841 11 0 0.0 8.0 0.00 0.46 0.46 89 998.1
20260905184941 11 0 0.0 11.3 0.00 0.46 0.46 89 998.1
20260905184041 11 324 1.6 11.3 0.00 0.46 0.46 89 998.0
20260905183140 11 0 0.0 8.0 0.00 0.46 0.46 89 997.9
20260905182452 11 321 1.6 11.3 0.00 0.46 0.46 89 997.8
20260905181341 11 0 0.0 8.0 0.00 0.46 0.46 90 997.7
20260905180441 11 0 0.0 8.0 0.00 0.46 0.46 89 997.6
20260905175540 11 0 0.0 4.8 0.00 0.46 0.46 90 997.4
20260905174852 11 0 0.0 4.8 0.00 0.46 0.46 90 997.4
20260905173741 12 324 1.6 9.7 0.00 0.46 0.46 90 997.3
20260905173052 12 0 0.0 8.0 0.00 0.46 0.46 89 997.1
20260905171941 12 325 1.6 14.5 0.00 0.46 0.46 89 997.0
20260905171251 12 0 0.0 4.8 0.00 0.46 0.46 89 996.9
20260905170141 12 319 1.6 14.5 0.00 0.46 0.46 88 996.7
20260905165241 12 320 1.6 12.9 0.00 0.46 0.46 88 996.6
20260905164341 12 0 0.0 12.9 0.00 0.46 0.46 87 996.6
20260905163442 13 0 0.0 12.9 0.00 0.46 0.46 87 996.4
20260905162541 13 0 0.0 0.0 0.00 0.46 0.46 87 996.3
20260905161641 13 0 0.0 3.2 0.00 0.46 0.46 87 996.3
20260905160741 13 0 0.0 3.2 0.00 0.46 0.46 87 996.2
20260905155841 13 0 0.0 4.8 0.00 0.46 0.46 86 996.1
20260905154941 13 0 0.0 6.4 0.00 0.46 0.46 86 996.1
20260905154254 13 0 0.0 3.2 0.00 0.46 0.46 87 996.0
20260905153352 13 0 0.0 1.6 0.00 0.46 0.46 86 995.9
20260905152454 13 0 0.0 0.0 0.00 0.46 0.46 86 995.9
20260905151341 14 0 0.0 0.0 0.00 0.46 0.46 85 995.8
20260905150441 14 0 0.0 4.8 0.00 0.46 0.46 84 995.7
20260905145541 14 0 0.0 4.8 0.00 0.46 0.46 84 995.6
20260905144641 14 0 0.0 4.8 0.00 0.46 0.46 84 995.6
20260905143741 14 0 0.0 9.7 0.00 0.46 0.46 85 995.5
20260905142841 14 0 0.0 8.0 0.00 0.46 0.46 84 995.5
20260905141941 14 0 0.0 6.4 0.00 0.46 0.46 84 995.3
20260905141041 14 347 1.6 4.8 0.00 0.46 0.46 84 995.2
20260905140141 15 0 0.0 4.8 0.00 0.46 0.46 85 995.1
20260905135241 15 0 0.0 3.2 0.00 0.46 0.46 85 995.1
20260905134341 15 323 1.6 9.7 0.00 0.46 0.46 83 994.9
20260905133441 15 314 1.6 9.7 0.00 0.46 0.46 83 994.9
20260905132541 15 327 3.2 8.0 0.00 0.46 0.46 84 994.9
20260905131641 15 347 1.6 12.9 0.00 0.46 0.46 83 994.9
20260905130741 15 0 0.0 3.2 0.03 0.46 0.46 87 994.9
20260905125840 14 0 0.0 3.2 0.03 0.46 0.46 90 994.9
20260905124941 13 0 0.0 0.0 0.03 0.46 0.46 92 994.9
20260905124041 13 0 0.0 0.0 0.03 0.46 0.46 92 994.8
20260905123141 13 0 0.0 6.4 0.03 0.46 0.46 91 994.8
20260905122241 13 0 0.0 0.0 0.03 0.46 0.46 91 994.7
20260905121553 13 0 0.0 0.0 0.00 0.43 0.43 90 994.7
20260905120441 13 0 0.0 3.2 0.00 0.43 0.43 90 994.6
20260905115541 13 0 0.0 11.3 0.00 0.43 0.43 91 994.6
20260905114641 13 0 0.0 3.2 0.00 0.43 0.43 92 994.5
20260905113953 13 0 0.0 4.8 0.00 0.43 0.43 91 994.5
20260905112841 13 0 0.0 4.8 0.05 0.43 0.43 93 994.5
20260905111941 13 0 0.0 3.2 0.05 0.43 0.43 94 994.3
20260905111041 13 0 0.0 0.0 0.05 0.43 0.43 96 994.4
20260905110140 13 0 0.0 0.0 0.05 0.43 0.43 95 994.3
20260905105241 13 0 0.0 0.0 0.05 0.43 0.43 95 994.2
20260905104341 13 0 0.0 3.2 0.05 0.43 0.43 95 994.1
20260905103440 13 0 0.0 0.0 0.08 0.43 0.43 95 994.0
20260905102541 13 0 0.0 0.0 0.28 0.41 0.41 95 994.0
20260905101640 12 0 0.0 0.0 0.28 0.41 0.41 96 993.9
20260905100951 12 0 0.0 0.0 0.28 0.41 0.41 97 993.9
20260905095840 12 0 0.0 0.0 0.28 0.41 0.41 95 993.9
20260905094941 12 0 0.0 0.0 0.30 0.41 0.41 95 993.8
20260905094041 12 0 0.0 0.0 0.36 0.41 0.41 94 993.9
20260905093350 12 0 0.0 0.0 0.33 0.33 0.36 95 993.8
20260905092241 12 0 0.0 0.0 0.13 0.13 0.13 94 993.7
20260905091341 12 0 0.0 0.0 0.13 0.13 0.13 94 993.7
20260905090441 12 0 0.0 0.0 0.13 0.13 0.13 93 993.6
20260905085542 12 0 0.0 0.0 0.13 0.13 0.13 93 993.6
20260905084641 12 0 0.0 1.6 0.08 0.08 0.10 92 993.6
20260905083741 12 0 0.0 0.0 0.05 0.05 0.05 92 993.5
20260905082841 12 0 0.0 0.0 0.00 0.00 0.00 89 993.4
20260905081941 12 0 0.0 0.0 0.00 0.00 0.00 89 993.5
20260905081041 12 0 0.0 3.2 0.00 0.00 0.00 89 993.5
20260905080141 12 0 0.0 0.0 0.00 0.00 0.00 91 993.5
20260905075451 12 0 0.0 0.0 0.00 0.00 0.00 92 993.5